Regional Weather Roundup
Issued by NWS

Home | Current Version | Previous Version | Text Only | Print | Product List | Glossary Off
Versions: 1 2 3 4 5 6 7 8 9 10 11 12 13 14 15 16 17 18 19 20 21 22 23 24 25 26 27 28 29 30 31 32 33 34 35 36 37 38 39 40 41 42 43 44 45 46 47 48 49 50

629
ASUS43 KMPX 230410
RWRMN
WEATHER ROUNDUP FOR MINNESOTA
NATIONAL WEATHER SERVICE TWIN CITIES/CHANHASSEN MN
1000 PM CST SUN JAN 22 2017


NOTE: "FAIR" INDICATES FEW OR NO CLOUDS BELOW 12,000 FEET WITH NO
SIGNIFICANT WEATHER AND/OR OBSTRUCTIONS TO VISIBILITY. N/A MEANS
CURRENT SKY AND/OR WEATHER CONDITIONS ARE NOT AVAILABLE.

MNZ060>063-068>070-230500-
   Twin Cities Metro

CITY           SKY/WX    TMP DP  RH WIND       PRES   REMARKS
TWIN CITIES    DRIZZLE   35  32  88 W10       29.79R FOG     WCI  27
ST PAUL        CLOUDY    36  36 100 W5        29.80R FOG
CRYSTAL        CLOUDY    35  31  85 W9        29.78R WCI  28
BLAINE         CLOUDY    37  37 100 CALM      29.77S FOG
LAKEVILLE      CLOUDY    32  32 100 W8        29.79S FOG     WCI  25
EDEN PRAIRIE   CLOUDY    34  32  92 W7        29.78S FOG     WCI  28
SOUTH ST PAUL  CLOUDY    36  36  99 W7        29.78S FOG
LAKE ELMO      CLOUDY    36  36 100 W6        29.79R FOG
$$
MNZ001>005-007-008-013>017-022>024-027-028-230500-
   Northwest Minnesota

CITY           SKY/WX    TMP DP  RH WIND       PRES   REMARKS
BEMIDJI        CLOUDY    32  32 100 W8        29.74S FOG     WCI  25
HALLOCK        CLOUDY    34  32  93 W5        29.75S FOG     WCI  30
ROSEAU         LGT SNOW  34  28  80 SW5       29.73S WCI  30
WARROAD        DRZL/FOG  34  28  80 SW3       29.73S VSB 1
THIEF RVR FALL CLOUDY    31  29  92 SW7       29.76F WCI  24
CROOKSTON      CLOUDY    32  30  93 SW6       29.78S WCI  26
FOSSTON        MIX PCPN  30  30 100 SW6       29.76S VSB 1/2 WCI  24
DETROIT LAKES  FOG       32  32 100 W7        29.77F VSB 3/4 WCI  26
MOORHEAD       CLOUDY    32  28  86 W6        29.80S WCI  26
PARK RAPIDS    CLOUDY    33  29  85 W9        29.74S WCI  25
MAHNOMEN       CLOUDY    30  30 100 W7        29.76S WCI  23
$$
MNZ006-009>011-018-025>026-230500-
   North Central Minnesota

CITY           SKY/WX    TMP DP  RH WIND       PRES   REMARKS
BAUDETTE       FOG       33  32  96 CALM      29.72S VSB 3/4
FLAG ISLAND    FOG       32  32 100 CALM      29.71F VSB 3/4
INTL FALLS     FOG       35  34  96 CALM      29.71F VSB 1/2
WASKISH        FOG       34  34 100 SW8       29.74R VSB 3/4 WCI  27
BIG FORK       FOG       36  34  93 CALM      29.72S VSB 1/2
LONGVILLE      FOG       34  34 100 CALM      29.74R VSB 3/4
GRAND RAPIDS   FOG       34  34 100 W3        29.74S VSB 1/4
CRANE LAKE     CLOUDY    30  30 100 CALM      29.73F FOG
ORR            LGT RAIN  32  30  93 CALM      29.69S
COOK           CLOUDY    32  32 100 CALM      29.71S
WALKER         CLOUDY    32  32  99 W6        29.74S WCI  26
$$
MNZ012-019>021-037-230500-
   Northeast Minnesota

CITY           SKY/WX    TMP DP  RH WIND       PRES   REMARKS
DULUTH         CLOUDY    35  34  96 N6        29.70S WCI  30
ELY            CLOUDY    34  34 100 CALM      29.70S FOG
HIBBING        FOG       33  33 100 N3        29.71S VSB 3/4
EVELETH        CLOUDY    33  32  98 CALM      29.72S
DULUTH HARBOR  CLOUDY    36  36 100 CALM      29.74S
TWO HARBORS    CLOUDY    37  34  87 CALM      29.70R
SILVER BAY     CLOUDY    36  36 100 CALM      29.69S
GRAND MARAIS     N/A     37  33  85 CALM      29.72R
G MARAIS ARPRT DRIZZLE   30  28  93 CALM      29.69R
$$
MNZ029>031-032-039>041-046>048-054>057-064-230500-
   West Central Minnesota

CITY           SKY/WX    TMP DP  RH WIND       PRES   REMARKS
FERGUS FALLS   CLOUDY    30  30 100 NW13      29.83S WCI  20
WHEATON        CLOUDY    37  37 100 NW10      29.83S
MORRIS         CLOUDY    34  32  93 NW6       29.79F FOG     WCI  29
ALEXANDRIA     CLOUDY    31  31 100 W13       29.78S FOG     WCI  21
ELBOW LAKE     CLOUDY    31  30  97 W9        29.80S FOG     WCI  23
WADENA         CLOUDY    30  30 100 W7          N/A  FOG     WCI  23
GLENWOOD       CLOUDY    30  30 100 W9        29.79S FOG     WCI  22
APPLETON       CLOUDY    34  30  86 W7        29.81F WCI  28
ORTONVILLE     CLOUDY    34  28  80 CALM      29.81S
MADISON        CLOUDY    36  34  93 NW8       29.82S
WILLMAR        CLOUDY    34  34 100 CALM      29.81S FOG
$$
MNZ033>034-036-042>043-049>051-058-059-230500-
   Central Minnesota

CITY           SKY/WX    TMP DP  RH WIND       PRES   REMARKS
ST CLOUD       CLOUDY    33  33 100 W7        29.78R FOG     WCI  27
SAUK CENTRE    CLOUDY    32  31  96 NW8       29.78S FOG     WCI  25
PAYNESVILLE    CLOUDY    32  32 100 W7        29.79S FOG     WCI  26
AITKIN         CLOUDY    37  34  87 CALM      29.73R FOG
PINE RIVER     CLOUDY    34  34 100 W3        29.78S FOG
BRAINERD       CLOUDY    33  32  96 W7        29.75S FOG     WCI  27
STAPLES        CLOUDY    30  30 100 W7        29.76S FOG     WCI  23
LONG PRAIRIE   CLOUDY    32  30  93 W3        29.78S FOG
LITTLE FALLS   CLOUDY    32  32 100 W6        29.78R FOG     WCI  26
LITCHFIELD     CLOUDY    34  34 100 W6        29.80S FOG     WCI  29
BUFFALO        CLOUDY    33  32  97 W7        29.80S FOG     WCI  26
MAPLE LAKE     CLOUDY    34  33  99 W7        29.80S FOG     WCI  27
HUTCHINSON     CLOUDY    33  32  96 W7        29.82R FOG     WCI  27
$$
MNZ037-044-045-052-053-230500-
   East Central Minnesota

CITY           SKY/WX    TMP DP  RH WIND       PRES   REMARKS
PRINCETON      CLOUDY    36  34  93 CALM      29.78R FOG
MORA           CLOUDY    34  32  93 CALM      29.77R
CAMBRIDGE      CLOUDY    37  36  93 W3        29.75S FOG
RUSH CITY      CLOUDY    36  34  93 W3        29.76S FOG
MOOSE LAKE     FOG       36  34  93 CALM      29.72S VSB 1/2
HINCKLEY       CLOUDY    36  36 100 W5        29.75R FOG
CLOQUET        FOG       36  34  93 CALM      29.72R VSB 1/4
MCGREGOR       CLOUDY    34  34 100 W3        29.74R
$$
MNZ071>073-080-081-089-090-097-098-230500-
   Southwest Minnesota

CITY           SKY/WX    TMP DP  RH WIND       PRES   REMARKS
MONTEVIDEO     CLOUDY    34  34 100 NW6       29.83S WCI  29
GRANITE FALLS  CLOUDY    34  32  92 W7        29.84S WCI  28
CANBY          CLOUDY    33  31  90 NW9       29.83F WCI  26
MARSHALL       CLOUDY    32  28  85 NW8       29.83S WCI  25
REDWOOD FALLS  CLOUDY    33  28  81 NW8       29.82S WCI  26
OLIVIA         CLOUDY    32  32 100 W5        29.81S WCI  27
PIPESTONE      CLOUDY    30  28  93 N7        29.82S WCI  23
WINDOM         CLOUDY    30  30 100 NW8       29.83R WCI  23
WORTHINGTON    CLOUDY    29  28  96 NW16      29.83S FOG     WCI  17
JACKSON        CLOUDY    30  30 100 NW14      29.83S FOG     WCI  20
TRACY          CLOUDY    32  31  94 NW8       29.83S WCI  25
SLAYTON        CLOUDY    29  28  96 NW9       29.83S FOG     WCI  21
$$
MNZ065>067-074>077-082>085-091>093-230500-
   South Central Minnesota

CITY           SKY/WX    TMP DP  RH WIND       PRES   REMARKS
MANKATO        CLOUDY    32  30  92 W9        29.82S FOG     WCI  24
NEW ULM        CLOUDY    32  30  93 W7        29.82S FOG     WCI  26
ST JAMES       CLOUDY    32  30  93 W8        29.84S WCI  25
FAIRMONT       CLOUDY    31  30  96 N13       29.84S FOG     WCI  21
GLENCOE        CLOUDY    33  33 100 W7        29.80S FOG     WCI  27
OWATONNA       CLOUDY    32  30  93 W12       29.81R FOG     WCI  23
WASECA         CLOUDY    32  32 100 NW13      29.82S FOG     WCI  22
ALBERT LEA     CLOUDY    34  34 100 NW8       29.80R FOG     WCI  27
$$
MNZ078>079-086>088-094>096-230500-
   Southeast Minnesota

CITY           SKY/WX    TMP DP  RH WIND       PRES   REMARKS
ROCHESTER      CLOUDY    33  33 100 NW10      29.78R FOG     WCI  25
RED WING       DRZL/FOG  36  34  93 W5        29.78R VSB 1
STANTON        CLOUDY    35  33  94 W10       29.78R FOG     WCI  27
DODGE CENTER   CLOUDY    34  34 100 W10       29.78S FOG     WCI  26
WINONA         CLOUDY    34  34 100 NW5       29.78R FOG     WCI  30
AUSTIN         CLOUDY    34  32  93 NW10      29.79R FOG     WCI  26
PRESTON        CLOUDY    33  32  96 NW9       29.77S FOG     WCI  25
$$
ABBREVIATIONS USED IN REMARKS
   TC - TEMPERATURES IN CELSIUS
  WCI - WIND CHILL INDEX
   HX - HEAT INDEX
  VSB - VISIBILITY
$$




USA.gov is the U.S. government's official web portal to all federal, state and local government web resources and services.